Flag for Germany Weather past 2 weeks in Zittau, Saxony, Germany

Now
56 °F

Light rain. Overcast.


Feels Like: 56 °F
Forecast: 51 / 67 °F
Wind: 2 mph from Northwest

Location: Liberec

Current Time: Sep 4, 2015 at 12:21:10 AM

Latest Report: Sep 3, 2015 at 11:00 PM


Visibility: 13 mi

Pressure: 29.93 "Hg

Humidity: 91%

Dew point: 53 °F

Location of ZittauLocation

Historic Weather in Zittau — Graph

°F

Zittau temperature yesterday

Maximum temperature yesterday: 70 °F (at 4:00 PM)
Minimum temperature yesterday: 51 °F (at 12:00 AM)
Average temperature yesterday: 61 °F

Past Weeks' High & Low Weather Summary

 TemperatureHumidityPressure
High90 °F (Aug 31, 3:00 PM)98% (Aug 20, 2:00 AM)30.32 "Hg (Aug 20, 2:00 AM)
Low46 °F (Aug 23, 5:00 AM)27% (Aug 21, 6:00 PM)29.66 "Hg (Sep 1, 6:00 PM)
Average66 °F62%30.03 "Hg
* Reported Aug 19 10:00 PM — Sep 3 10:00 PM, Zittau, Weather by CustomWeather, © 2015

Note: Actual official high and low records may vary slightly from our data, if they occured in-between our weather recording intervals... More about our weather records

Advertising

Zittau weather history for previous 24 hours

 ConditionsComfort  
Time TempWeatherWind HumidityBarometerVisibility
10:00 PM
Thu, Sep 3
56 °FOvercast.3 mph88%29.94 "Hg9 mi
9:00 PM58 °FLight rain. Overcast.5 mph81%29.94 "Hg9 mi
8:00 PM62 °FOvercast.2 mph71%29.92 "Hg14 mi
7:00 PM64 °FMild.1 mph58%29.89 "Hg12 mi
6:00 PM67 °FMild.2 mph48%29.89 "Hg12 mi
5:00 PM68 °FOvercast.2 mph44%29.88 "Hg31 mi
4:00 PM70 °FOvercast.2 mph34%29.89 "Hg31 mi
3:00 PM70 °FPartly sunny.3 mph34%29.90 "Hg31 mi
2:00 PM69 °FPartly sunny.3 mph39%29.92 "Hg31 mi
1:00 PM68 °FScattered clouds.5 mph42%29.94 "Hg28 mi
12:00 PM66 °FPartly sunny.3 mph48%29.96 "Hg28 mi
11:00 AM65 °FPassing clouds.5 mph50%29.97 "Hg25 mi
10:00 AM63 °FPartly sunny.3 mph55%29.97 "Hg22 mi
9:00 AM62 °FPartly sunny.2 mph59%29.98 "Hg19 mi
8:00 AM57 °FPartly sunny.3 mph74%30.00 "Hg17 mi
7:00 AM56 °FCool.2 mph77%30.00 "Hg12 mi
5:00 AM55 °FCool.2 mph77%30.01 "Hg12 mi
4:00 AM55 °FCool.1 mph80%30.01 "Hg12 mi
3:00 AM53 °FCool.1 mph91%30.02 "Hg12 mi
2:00 AM51 °FCool.1 mph92%30.03 "Hg12 mi
1:00 AM52 °FCool.1 mph88%30.03 "Hg12 mi
12:00 AM51 °FCool.No wind87%30.04 "Hg12 mi
Weather by CustomWeather, © 2015

See weather overviewHow to use our weather pages